Time,TemperatureF,DewpointF,PressureIn,WindDirection,WindDirectionDegrees,WindSpeedMPH,WindSpeedGustMPH,Humidity,HourlyPrecipIn,Conditions,Clouds,dailyrainin,SoftwareType,DateUTC
2013-05-27 00:15:00,48.1,33.1,29.86,North,350,0.0,0.0,56,0.00,,,0.00,Wunderground v.1.12,2013-05-27 04:15:00,
2013-05-27 00:45:00,48.0,33.0,29.86,North,349,0.0,4.0,56,0.00,,,0.00,Wunderground v.1.12,2013-05-27 04:45:00,
2013-05-27 01:15:00,47.8,32.4,29.86,North,349,0.0,0.0,55,0.00,,,0.00,Wunderground v.1.12,2013-05-27 05:15:00,
2013-05-27 01:45:00,47.0,32.1,29.86,North,350,0.0,0.0,56,0.00,,,0.00,Wunderground v.1.12,2013-05-27 05:45:00,
2013-05-27 02:15:00,46.7,31.4,29.87,NNW,347,0.0,0.0,55,0.00,,,0.00,Wunderground v.1.12,2013-05-27 06:15:00,
2013-05-27 02:45:00,46.2,31.8,29.88,NNW,347,0.0,0.0,57,0.00,,,0.00,Wunderground v.1.12,2013-05-27 06:45:00,
2013-05-27 03:15:00,45.7,31.3,29.88,NNW,339,0.0,0.0,57,0.00,,,0.00,Wunderground v.1.12,2013-05-27 07:15:00,
2013-05-27 03:45:00,45.1,31.6,29.89,NW,308,0.0,0.0,59,0.00,,,0.00,Wunderground v.1.12,2013-05-27 07:45:00,
2013-05-27 04:15:00,44.6,31.6,29.90,NW,307,0.0,0.0,60,0.00,,,0.00,Wunderground v.1.12,2013-05-27 08:15:00,
2013-05-27 04:45:00,43.6,31.0,29.90,NW,307,0.0,0.0,61,0.00,,,0.00,Wunderground v.1.12,2013-05-27 08:45:00,
2013-05-27 05:15:00,43.4,30.8,29.91,NW,308,0.0,0.0,61,0.00,,,0.00,Wunderground v.1.12,2013-05-27 09:15:00,
2013-05-27 05:45:00,42.8,30.7,29.92,NW,307,0.0,0.0,62,0.00,,,0.00,Wunderground v.1.12,2013-05-27 09:45:00,
2013-05-27 06:15:00,42.4,31.5,29.93,NW,306,0.0,0.0,65,0.00,,,0.00,Wunderground v.1.12,2013-05-27 10:15:00,
2013-05-27 06:45:00,43.6,32.2,29.94,NW,307,0.0,0.0,64,0.00,,,0.00,Wunderground v.1.12,2013-05-27 10:45:00,
2013-05-27 07:15:00,46.1,33.0,29.94,NW,306,0.0,0.0,60,0.00,,,0.00,Wunderground v.1.12,2013-05-27 11:15:00,
2013-05-27 07:45:00,49.5,35.3,29.95,WNW,300,0.0,0.0,58,0.00,,,0.00,Wunderground v.1.12,2013-05-27 11:45:00,
2013-05-27 08:15:00,53.9,35.7,29.96,WNW,299,2.0,2.0,50,0.00,,,0.00,Wunderground v.1.12,2013-05-27 12:15:00,
2013-05-27 08:45:00,57.0,37.0,29.97,NW,315,0.0,3.0,47,0.00,,,0.00,Wunderground v.1.12,2013-05-27 12:45:00,
2013-05-27 09:15:00,58.1,38.0,29.97,WNW,293,1.0,1.0,47,0.00,,,0.00,Wunderground v.1.12,2013-05-27 13:15:00,
2013-05-27 09:45:00,61.0,38.3,29.96,NW,325,0.0,0.0,43,0.00,,,0.00,Wunderground v.1.12,2013-05-27 13:45:00,
2013-05-27 10:15:00,63.1,38.4,29.96,NW,322,0.0,0.0,40,0.00,,,0.00,Wunderground v.1.12,2013-05-27 14:15:00,
2013-05-27 10:45:00,62.8,36.8,29.96,West,265,0.0,4.0,38,0.00,,,0.00,Wunderground v.1.12,2013-05-27 14:45:00,
2013-05-27 11:15:00,64.6,36.3,29.94,WNW,302,6.0,6.0,35,0.00,,,0.00,Wunderground v.1.12,2013-05-27 15:15:00,
2013-05-27 11:45:00,65.6,35.7,29.93,WNW,288,3.0,8.0,33,0.00,,,0.00,Wunderground v.1.12,2013-05-27 15:45:00,
2013-05-27 12:15:00,67.0,36.9,29.93,WNW,289,4.0,4.0,33,0.00,,,0.00,Wunderground v.1.12,2013-05-27 16:15:00,
2013-05-27 12:45:00,67.6,36.7,29.92,WNW,288,0.0,16.0,32,0.00,,,0.00,Wunderground v.1.12,2013-05-27 16:45:00,
2013-05-27 13:15:00,67.7,37.5,29.91,NW,321,0.0,0.0,33,0.00,,,0.00,Wunderground v.1.12,2013-05-27 17:15:00,
2013-05-27 13:45:00,68.4,36.6,29.91,WNW,302,0.0,8.0,31,0.00,,,0.00,Wunderground v.1.12,2013-05-27 17:45:00,
2013-05-27 14:15:00,68.3,33.9,29.91,WNW,285,2.0,2.0,28,0.00,,,0.00,Wunderground v.1.12,2013-05-27 18:15:00,
2013-05-27 14:45:00,69.9,34.4,29.90,WNW,283,0.0,10.0,27,0.00,,,0.00,Wunderground v.1.12,2013-05-27 18:45:00,
2013-05-27 15:15:00,70.3,34.7,29.89,WNW,299,2.0,2.0,27,0.00,,,0.00,Wunderground v.1.12,2013-05-27 19:15:00,
2013-05-27 15:45:00,69.6,35.0,29.89,NNW,341,0.0,0.0,28,0.00,,,0.00,Wunderground v.1.12,2013-05-27 19:45:00,
2013-05-27 16:15:00,70.1,34.5,29.88,WNW,290,2.0,2.0,27,0.00,,,0.00,Wunderground v.1.12,2013-05-27 20:15:00,
2013-05-27 16:45:00,69.7,34.2,29.88,NW,311,4.0,4.0,27,0.00,,,0.00,Wunderground v.1.12,2013-05-27 20:45:00,
2013-05-27 17:15:00,68.1,32.8,29.88,West,274,0.0,0.0,27,0.00,,,0.00,Wunderground v.1.12,2013-05-27 21:15:00,
2013-05-27 17:45:00,67.4,34.0,29.87,NNW,333,4.0,10.0,29,0.00,,,0.00,Wunderground v.1.12,2013-05-27 21:45:00,
2013-05-27 18:15:00,68.0,32.7,29.87,WNW,302,0.0,0.0,27,0.00,,,0.00,Wunderground v.1.12,2013-05-27 22:15:00,
2013-05-27 18:45:00,66.0,34.5,29.87,WNW,302,0.0,5.0,31,0.00,,,0.00,Wunderground v.1.12,2013-05-27 22:45:00,
2013-05-27 19:15:00,67.1,37.0,29.88,WNW,301,0.0,0.0,33,0.00,,,0.00,Wunderground v.1.12,2013-05-27 23:15:00,
2013-05-27 19:45:00,62.7,36.7,29.88,WNW,302,0.0,0.0,38,0.00,,,0.00,Wunderground v.1.12,2013-05-27 23:45:00,
2013-05-27 20:15:00,59.3,36.8,29.88,West,281,0.0,0.0,43,0.00,,,0.00,Wunderground v.1.12,2013-05-28 00:15:00,
2013-05-27 20:45:00,57.0,36.4,29.89,WNW,285,0.0,0.0,46,0.00,,,0.00,Wunderground v.1.12,2013-05-28 00:45:00,
2013-05-27 21:15:00,55.1,36.8,29.89,WNW,283,0.0,0.0,50,0.00,,,0.00,Wunderground v.1.12,2013-05-28 01:15:00,
2013-05-27 21:45:00,53.8,36.1,29.90,WNW,282,0.0,0.0,51,0.00,,,0.00,Wunderground v.1.12,2013-05-28 01:45:00,
2013-05-27 22:15:00,52.2,35.6,29.91,West,281,0.0,0.0,53,0.00,,,0.00,Wunderground v.1.12,2013-05-28 02:15:00,
2013-05-27 22:45:00,51.0,36.3,29.91,West,281,0.0,0.0,57,0.00,,,0.00,Wunderground v.1.12,2013-05-28 02:45:00,
2013-05-27 23:15:00,48.8,37.6,29.92,West,281,0.0,0.0,65,0.00,,,0.00,Wunderground v.1.12,2013-05-28 03:15:00,
2013-05-27 23:45:00,47.9,37.1,29.92,WNW,282,0.0,0.0,66,0.00,,,0.00,Wunderground v.1.12,2013-05-28 03:45:00,